Regional Weather Roundup
Issued by NWS

Home | Current Version | Previous Version | Text Only | Print | Product List | Glossary Off
Versions: 1 2 3 4 5 6 7 8 9 10 11 12 13 14 15 16 17 18 19 20 21 22 23 24 25 26 27 28 29 30 31 32 33 34 35 36 37 38 39 40 41 42 43 44 45 46 47 48 49 50

979
ASUS43 KLMK 212110
RWRKY
NATIONAL WEATHER SERVICE LOUISVILLE KY
400 PM EST TUE NOV 21 2017

NOTE "FAIR" INDICATES FEW OR NO CLOUDS BELOW 12,000 FEET
WITH NO SIGNIFICANT WEATHER AND/OR OBSTRUCTIONS TO VISIBILITY.

KYZ001>023-026-027-061>063-070>075-212200-
WESTERN AND SOUTH CENTRAL KENTUCKY

CITY           SKY/WX    TMP DP  RH WIND       PRES   REMARKS
PADUCAH        MOSUNNY   57  36  45 SW12      29.99R
HENDERSON      SUNNY     56  37  49 SW13      29.98R
OWENSBORO      CLOUDY    57  35  43 W12       29.98R
HOPKINSVILLE   MOSUNNY   56  32  39 SW10      29.99R
BOWLING GREEN  CLOUDY    58  30  34 SW10      29.99F
GLASGOW        SUNNY     59  29  32 W9        29.98F
$$

KYZ024-025-028>034-038-045-046-053-212200-
NORTH CENTRAL KENTUCKY

CITY           SKY/WX    TMP DP  RH WIND       PRES   REMARKS
LOUISVILLE/SDF PTSUNNY   58  30  34 W14       29.96R
LOUISVILLE/LOU SUNNY     57  32  38 SW16G24   29.96S
FORT KNOX      MOSUNNY   56  31  38 SW13      29.95S
$$

KYZ035>037-039>044-047>052-055>060-089>105-212200-
NORTHEAST KENTUCKY

CITY           SKY/WX    TMP DP  RH WIND       PRES   REMARKS
LEXINGTON      SUNNY     57  29  34 SW14      29.96F
COVINGTON      PTSUNNY   55  31  39 SW16G22   29.92R
FRANKFORT      SUNNY     56  26  31 SW10      29.95S
$$

KYZ054-064>069-076>088-106>120-212200-
SOUTHEAST KENTUCKY

CITY           SKY/WX    TMP DP  RH WIND       PRES   REMARKS
JACKSON        MOSUNNY   62  43  49 VRB3G25   29.96F
LONDON         SUNNY     63  43  48 SW14G25   29.96F
SOMERSET       SUNNY     61  37  41 W10       29.97F
MIDDLESBORO    SUNNY     60  48  64 S5        30.00F
MONTICELLO     CLEAR     62  41  46 W20       29.99S
$$





USA.gov is the U.S. government's official web portal to all federal, state and local government web resources and services.